This is the latest recevied weather packets stored in our database for station/object OH6HPS. If no packets are shown the sender has not sent any weather packets the latest 10 day(s).
| Time | Temp. | Humidity | Pressure | Rain* | Wind** | Luminosity | Snow |
|---|---|---|---|---|---|---|---|
| 1777740536 | 15.56° C | 54% | 1007.9 hPa | 0 mm | - | 23 W/m² | - |
| 1777739936 | 16.11° C | 52% | 1008 hPa | 0 mm | - | 25 W/m² | - |
| 1777739337 | 16.67° C | 49% | 1008.1 hPa | 0 mm | - | 49 W/m² | - |
| 1777738735 | 17.78° C | 47% | 1008.1 hPa | 0 mm | - | 160 W/m² | - |
| 1777738135 | 18.33° C | 46% | 1008.1 hPa | 0 mm | - | 204 W/m² | - |
| 1777737821 | 18.89° C | 43% | 1008.2 hPa | 0 mm | - | 229 W/m² | - |
| 1777737537 | 18.89° C | 43% | 1008.2 hPa | 0 mm | - | 229 W/m² | - |
| 1777736935 | 18.89° C | 42% | 1008.3 hPa | 0 mm | - | 252 W/m² | - |
| 1777736335 | 18.89° C | 41% | 1008.3 hPa | 0 mm | - | 273 W/m² | - |
| 1777735734 | 20° C | 39% | 1008.4 hPa | 0 mm | - | 294 W/m² | - |
| 1777735135 | 20.56° C | 36% | 1008.4 hPa | 0 mm | - | 318 W/m² | - |
| 1777734534 | 20.56° C | 34% | 1008.5 hPa | 0 mm | - | 338 W/m² | - |
| 1777733934 | 20.56° C | 34% | 1008.6 hPa | 0 mm | - | 357 W/m² | - |
| 1777733335 | 20.56° C | 33% | 1008.6 hPa | 0 mm | - | 378 W/m² | - |
| 1777732732 | 20.56° C | 34% | 1008.7 hPa | 0 mm | - | 398 W/m² | - |
| 1777732133 | 20.56° C | 33% | 1008.7 hPa | 0 mm | - | 420 W/m² | - |
| 1777731536 | 20.56° C | 32% | 1008.7 hPa | 0 mm | - | 438 W/m² | - |
| 1777730932 | 21.11° C | 32% | 1008.7 hPa | 0 mm | - | 459 W/m² | - |
| 1777730332 | 20.56° C | 32% | 1008.7 hPa | 0 mm | - | 477 W/m² | - |
| 1777729733 | 21.11° C | 28% | 1009 hPa | 0 mm | - | 494 W/m² | - |
| 1777729131 | 21.11° C | 27% | 1008.8 hPa | 0 mm | - | 517 W/m² | - |
| 1777728532 | 21.11° C | 29% | 1009 hPa | 0 mm | - | 531 W/m² | - |
| 1777727932 | 20.56° C | 32% | 1008.9 hPa | 0 mm | - | 543 W/m² | - |
| 1777727348 | 20.56° C | 32% | 1008.9 hPa | 0 mm | - | 561 W/m² | - |
| 1777727148 | 21.11° C | 33% | 1008.8 hPa | 0 mm | - | 600 W/m² | - |
* Rain latest hour (hover to see other rain measurements)
** Current wind speed in m/s (hover to see current wind gust speed)